Regional Weather Roundup
Issued by NWS

Home | Current Version | Previous Version | Text Only | Print | Product List | Glossary Off
Versions: 1 2 3 4 5 6 7 8 9 10 11 12 13 14 15 16 17 18 19 20 21 22 23 24 25 26 27 28 29 30 31 32 33 34 35 36 37 38 39 40 41 42 43 44 45 46 47 48 49 50

575
ASUS43 KMPX 201001
RWRMN
WEATHER ROUNDUP FOR MINNESOTA
NATIONAL WEATHER SERVICE TWIN CITIES/CHANHASSEN MN
500 AM CDT WED SEP 20 2017


NOTE: "FAIR" INDICATES FEW OR NO CLOUDS BELOW 12,000 FEET WITH NO
SIGNIFICANT WEATHER AND/OR OBSTRUCTIONS TO VISIBILITY. N/A MEANS
CURRENT SKY AND/OR WEATHER CONDITIONS ARE NOT AVAILABLE.

MNZ060>063-068>070-201100-
   Twin Cities Metro

CITY           SKY/WX    TMP DP  RH WIND       PRES   REMARKS
TWIN CITIES    MOCLDY    71  68  90 S7        29.61F
ST PAUL        CLOUDY    70  68  93 SE13      29.62F
CRYSTAL        CLOUDY    70  65  84 S8        29.59F
BLAINE         CLOUDY    72  70  94 S9        29.61F
LAKEVILLE      PTCLDY    70  70 100 S7        29.63R
EDEN PRAIRIE   MOCLDY    70  67  90 S8        29.60S
SOUTH ST PAUL  CLOUDY    69  69  98 SE7       29.62F
LAKE ELMO      CLOUDY    68  66  94 SE9       29.64F
$$
MNZ001>005-007-008-013>017-022>024-027-028-201100-
   Northwest Minnesota

CITY           SKY/WX    TMP DP  RH WIND       PRES   REMARKS
BEMIDJI        CLOUDY    60  59  98 SE9       29.50F
HALLOCK        DRIZZLE   59  55  88 W9G16     29.46R
ROSEAU         CLOUDY    61  55  82 S9        29.41F
WARROAD        CLOUDY    61  55  82 S9        29.42F
CROOKSTON      CLOUDY    57  55  94 NW15      29.49R
FOSSTON        MOCLDY    59  57  94 SW13      29.51R
DETROIT LAKES  CLOUDY    59  59 100 W16G29    29.56R
MOORHEAD       CLOUDY    57  52  82 W16       29.55S
PARK RAPIDS    CLOUDY    63  61  93 S10       29.50F
MAHNOMEN       CLOUDY    59  58  98 W25G31    29.54R
$$
MNZ006-009>011-018-025>026-201100-
   North Central Minnesota

CITY           SKY/WX    TMP DP  RH WIND       PRES   REMARKS
BAUDETTE       CLOUDY    61  60  97 S13       29.46F
FLAG ISLAND    CLOUDY    61  59  94 S13       29.40S
INTL FALLS     CLOUDY    61  59  93 SE16      29.50R
WASKISH        CLOUDY    61  61 100 S6        29.50F
BIG FORK       CLOUDY    61  61 100 CALM      29.54R
LONGVILLE      CLOUDY    57  57 100 SE6       29.55R
GRAND RAPIDS   CLOUDY    62  61  96 S14       29.60S
CRANE LAKE     LGT RAIN  61  59  94 CALM      29.58F
ORR            CLOUDY    61  57  88 SE3       29.57R
COOK           CLOUDY    63  59  88 SE8       29.59R
WALKER         CLOUDY    60  59  97 S6        29.52S
$$
MNZ012-019>021-037-201100-
   Northeast Minnesota

CITY           SKY/WX    TMP DP  RH WIND       PRES   REMARKS
DULUTH         LGT RAIN  59  59 100 SE8       29.66F VSB 1
ELY            TSTM      61  59  94 SE16G24   29.68F
HIBBING        LGT RAIN  60  60 100 SE8       29.58R
EVELETH        RAIN      63  62  96 E6        29.63S
DULUTH HARBOR  TSTM      61  59  94 CALM      29.66R
SILVER BAY     CLOUDY    61  59  94 NE7       29.69R
$$
MNZ029>031-032-039>041-046>048-054>057-064-201100-
   West Central Minnesota

CITY           SKY/WX    TMP DP  RH WIND       PRES   REMARKS
FERGUS FALLS   CLOUDY    61  61 100 W17G28    29.59R
WHEATON        PTCLDY    61  54  77 W6        29.61F
MORRIS         MOCLDY    63  61  94 W17G23    29.60R
ALEXANDRIA     PTCLDY    58  58 100 SW8       29.58R
ELBOW LAKE     MOCLDY    61  61 100 SW14G21   29.59R
WADENA         CLEAR     59  59 100 SE6       29.52S
GLENWOOD       CLOUDY    57  57 100 S5        29.56S FOG
APPLETON       CLEAR     61  55  82 W8        29.61R
BENSON         CLEAR     59  57  94 W14       29.62R
ORTONVILLE     PTCLDY    61  55  82 W9        29.61S
MADISON        PTCLDY    63  61  94 W10       29.63R
WILLMAR        FAIR      59  59 100 SE7       29.58F
$$
MNZ033>034-036-042>043-049>051-058-059-201100-
   Central Minnesota

CITY           SKY/WX    TMP DP  RH WIND       PRES   REMARKS
ST CLOUD       CLOUDY    62  62 100 W6        29.60R
SAUK CENTRE    FAIR      58  58  99 E8        29.58S
PAYNESVILLE    CLOUDY    61  61 100 SE6       29.60R
AITKIN         CLOUDY    61  59  94 S13       29.60R
PINE RIVER     CLOUDY    57  55  94 SE12      29.60R
BRAINERD       CLOUDY    61  59  93 SE9       29.60R
STAPLES        CLEAR     57  57 100 SE9       29.55R
LONG PRAIRIE   FAIR      57  55  94 E7        29.57S
LITTLE FALLS   CLOUDY    61  59  94 SE7       29.61R
LITCHFIELD     PTCLDY    63  63 100 CALM      29.61R
BUFFALO        CLOUDY    67  63  85 CALM      29.61S
MAPLE LAKE     CLOUDY    64  64  98 CALM      29.60S
HUTCHINSON     CLOUDY    63  62  97 CALM      29.63R
$$
MNZ037-044-045-052-053-201100-
   East Central Minnesota

CITY           SKY/WX    TMP DP  RH WIND       PRES   REMARKS
PRINCETON      CLOUDY    70  66  88 S3        29.59F
MORA           CLOUDY    59  59 100 SE6       29.62F
RUSH CITY      CLOUDY    63  62  95 E3        29.62F
MOOSE LAKE     CLOUDY    61  59  94 SE3       29.60F
HINCKLEY       CLOUDY    63  63 100 CALM      29.62F
CLOQUET        CLOUDY    61  57  88 E6        29.64F
MCGREGOR       CLOUDY    61  59  94 SE9       29.60F
$$
MNZ071>073-080-081-089-090-097-098-201100-
   Southwest Minnesota

CITY           SKY/WX    TMP DP  RH WIND       PRES   REMARKS
MONTEVIDEO     CLEAR     59  57  94 W7        29.61R
GRANITE FALLS  CLEAR     60  59  96 SW8G16    29.62R
CANBY          PTCLDY    61  55  82 SW6       29.65R
MARSHALL       PTCLDY    59  55  87 W9        29.64R
REDWOOD FALLS  PTCLDY    62  59  90 S6        29.60R
OLIVIA         PTCLDY    59  57  94 SE5       29.59S
PIPESTONE      CLOUDY    59  55  88 W8        29.69R
WINDOM         CLOUDY    61  57  88 S3        29.65R
WORTHINGTON    CLOUDY    61  56  83 S5        29.66S
JACKSON        CLOUDY    59  57  94 CALM      29.66S
TRACY          CLEAR     60  57  91 SW8       29.62S
SLAYTON        PTCLDY    57  55  93 S5        29.65S
$$
MNZ065>067-074>077-082>085-091>093-201100-
   South Central Minnesota

CITY           SKY/WX    TMP DP  RH WIND       PRES   REMARKS
MANKATO        MOCLDY    66  63  90 SW6       29.64R
NEW ULM        CLEAR     63  61  94 CALM      29.62S
ST JAMES       CLOUDY    63  61  94 S3        29.65R
FAIRMONT       PTCLDY    63  61  93 W3        29.65S
GLENCOE        CLOUDY    65  65  98 SW5       29.61S
FARIBAULT      MOCLDY    72  66  83 SE13      29.63F
OWATONNA       MOCLDY    72  66  83 S13       29.65R
WASECA         CLOUDY    72  66  83 S8        29.65S
ALBERT LEA     CLOUDY    73  66  78 S10       29.66F
$$
MNZ078>079-086>088-094>096-201100-
   Southeast Minnesota

CITY           SKY/WX    TMP DP  RH WIND       PRES   REMARKS
ROCHESTER      CLOUDY    70  64  81 S15G23    29.68R
RED WING       CLOUDY    73  63  68 S12       29.64F
STANTON        CLOUDY    72  65  78 S10G16    29.63S
DODGE CENTER   CLOUDY    70  63  78 S17G23    29.68R
WINONA         CLOUDY    72  63  73 SE10      29.69S
AUSTIN         CLOUDY    72  64  78 S9        29.68R
PRESTON        PTCLDY    68  63  82 S20G25    29.69F
$$
ABBREVIATIONS USED IN REMARKS
   TC - TEMPERATURES IN CELSIUS
  WCI - WIND CHILL INDEX
   HX - HEAT INDEX
  VSB - VISIBILITY
$$




USA.gov is the U.S. government's official web portal to all federal, state and local government web resources and services.